sat.trackr.live / text

‹ back to catalog

ONEWEB-0672

NORAD 55831 · 2023-029AM

PAYLOAD ACTIVE UNKNOWN

§ Identity

Operator
Country
UK
Launch date
2023-03-09
Launch site
AFETR
Launch vehicle
Mass (kg)
RCS (m²)

Purposes: comms

External: N2YO · Heavens-Above · Gunter

§ Orbital elements

Epoch: 2026-05-25T03:20:08.113056Z

Period
109.03 min
Inclination
87.9175°
Eccentricity
0.0002083
Mean motion
13.20770947 rev/d
Perigee alt
1,180.2 km
Apogee alt
1,183.4 km
Semi-major
7,559.9 km
B*
-2.0232e-5
RAAN
279.0302°
Arg perigee
105.0439°
Mean anomaly
255.0925°
Rev number
15,810

§ Raw data

ONEWEB-06721 55831U 23029AM  26145.13898279  .00000005  00000+0 -20232-4 0  99912 55831  87.9175 279.0302 0002083 105.0439 255.0925 13.20770947158102

JSON: /api/v1/satellites/55831 · /tle

For live sub-satellite position, see the globe view (requires WebGL).

§ Visibility from observer

Set your observer location to see the next 7 days of passes ≥ 10°. The values pass through the URL so the page stays shareable.

No JS? Fill the form by hand. The geolocation button needs JavaScript.